Meteo Giornale » Osservazioni meteo Italia » Genova-Sestri

ore: 03:20 - Osservazioni Meteo Genova-Sestri
Lat. 44° 25' N Lon. 8° 51' E Alt. 2 metri s.l.m.

sereno Europe/Rome

10 °C

Sereno

Temp. 24 Ore

10 °C

17 °C

Nord-Est

22.2 Km/h

Dew point -4 °C

Umidità 36 %

Visibilità  10 Km

Il sole sorge alle ore 06:59

Il sole tramonta alle ore 18:13

Data e Ora Cielo e Fenomeni T °C DP °C Um. % Pres. hPa Vis. km Vento km/h
Oggi h: 03:20 sereno Sereno 10 -4 36 1028 10 NE 22.2
Oggi h: 02:50 sereno Sereno 10 -5 34 1028 10 NE 22.2
Oggi h: 02:20 sereno Sereno 10 -5 34 1029 10 NE 22.2
Oggi h: 01:50 sereno Sereno 10 -4 36 1029 10 NE 20.3
Oggi h: 01:20 sereno Sereno 10 -4 36 1029 10 NE 25.9
Oggi h: 00:50 sereno Sereno 10 -4 36 1028 10 NE 24
Oggi h: 00:20 sereno Sereno 11 -3 37 1028 10 N/NE 25.9
Ieri h: 23:50 sereno Sereno 11 -2 40 1028 10 N/NE 25.9
Ieri h: 23:20 sereno Sereno 11 -2 40 1028 10 N/NE 24
Ieri h: 22:50 sereno Sereno 11 -1 43 1029 10 N/NE 24
Ieri h: 22:20 sereno Sereno 11 -0 46 1029 10 NE 20.3
Ieri h: 21:50 sereno Sereno 11 0 46 1028 10 NE 24
Ieri h: 19:50 sereno Sereno 12 0 43 1028 10 N/NE 14.8
Ieri h: 19:20 sereno Sereno 13 -0 40 1028 10 N/NE 11.1
Ieri h: 18:50 sereno Sereno 14 -1 35 1028 10 N 13
Ieri h: 18:20 sereno Sereno 14 -1 35 1028 10 N 14.8
Ieri h: 17:50 sereno Sereno 15 -1 33 1028 10 N 16.7
Ieri h: 17:20 sereno Sereno 15 -0 35 1028 10 N 18.5
Ieri h: 16:50 sereno Sereno 16 1 36 1028 10 N 18.5
Ieri h: 15:50 sereno Sereno 16 2 38 1028 10 N 24
Ieri h: 15:20 sereno Sereno 17 2 36 1028 10 N 24
Ieri h: 14:50 sereno Sereno 17 3 39 1029 10 N 25.9
Ieri h: 14:20 sereno Sereno 17 2 36 1029 10 N 29.6
Ieri h: 13:50 sereno Sereno 16 1 36 1029 10 N 37
Ieri h: 13:20 sereno Sereno 16 2 38 1029 10 N 35.2
Ieri h: 12:50 sereno Sereno 16 1 36 1029 10 N/NE 29.6
Ieri h: 12:20 sereno Sereno 16 2 38 1029 10 N/NE 31.5
Ieri h: 11:50 sereno Sereno 16 2 38 1030 10 N/NE 29.6
Ieri h: 10:50 sereno Sereno 14 2 44 1030 10 NE 22.2
Ieri h: 10:20 sereno Sereno 14 2 44 1030 10 NE 20.3
Ieri h: 09:50 sereno Sereno 13 2 47 1030 10 E/NE 24
Ieri h: 09:20 sereno Sereno 12 2 50 1029 10 E/NE 25.9
Ieri h: 08:50 sereno Sereno 12 1 46 1029 10 E/NE 24
Ieri h: 08:20 sereno Sereno 11 2 53 1029 10 E/NE 22.2
Ieri h: 07:50 sereno Sereno 11 3 57 1028 10 E/NE 22.2
Ieri h: 07:20 sereno Sereno 11 3 57 1028 10 E/NE 20.3
Ieri h: 06:50 sereno Sereno 11 2 53 1028 10 E/NE 16.7
Ieri h: 06:20 sereno Sereno 12 2 50 1027 10 NE 20.3
Ieri h: 05:50 sereno Sereno 12 1 46 1027 10 NE 18.5
Ieri h: 05:20 sereno Sereno 13 1 43 1027 10 NE 16.7
Ieri h: 04:50 sereno Sereno 13 2 47 1027 10 NE 20.3